CAPE
0 0 0 0 0 0 0 0 0 0 0 0 0 0 0 0 0 0 0 0 0 0 0 0 0 0 0 0 0 0 0 0 0 0 0 0 0 0 0 0 0 0 0 0
0 0 0 0 0 0 0 0 0 0 0 0 0 0 0 0 0 0 0 0 0 0 0 0 0 0 0 0 0 0 0 0 0 0 0 0 0 0 0 0 0 0 0 0
0 0 0 0 0 0 0 0 0 0 0 0 0 0 0 0 0 0 0 0 0 0 0 0 0 0 0 0 0 0 0 0 0 0 0 0 0 0 0 0 0 0 0 0
0 0 0 0 0 0 0 0 0 0 0 0 0 0 0 0 0 0 0 0 0 0 0 0 0 0 0 0 0 0 0 0 0 0 0 0 0 0 0 0 0 0 0 0
0 0 0 0 0 0 0 0 0 0 0 0 0 0 0 0 0 0 0 0 0 0 0 0 0 0 0 0 0 0 0 0 0 0 0 0 0 0 0 0 0 0 0 0
0 0 0 0 0 0 0 0 0 0 0 0 0 0 0 0 0 0 0 0 0 0 0 0 0 0 0 0 0 0 0 0 0 0 0 0 0 0 0 0 0 0 0 0
0 0 0 0 0 0 0 0 0 0 0 0 0 0 0 0 0 0 0 0 0 0 0 0 0 0 0 0 0 0 0 0 0 0 0 0 0 0 0 0 0 0 0 0
0 0 0 0 0 0 0 0 0 0 0 0 0 0 0 0 0 0 0 0 0 0 0 0 0 0 0 0 0 0 0 0 0 0 0 0 0 0 0 0 0 0 0 0
0 0 0 0 0 0 0 0 0 0 0 0 0 0 0 0 0 0 0 0 0 0 0 0 0 0 0 0 0 0 0 0 0 0 0 0 0 0 0 0 0 0 0 0
0 0 0 0 0 0 0 0 0 0 0 0 0 0 0 0 0 0 0 0 0 0 0 0 0 0 0 0 0 0 0 0 0 0 0 0 0 0 0 0 0 0 0 0
0 0 0 0 0 0 0 0 0 0 0 0 0 0 0 0 0 0 0 0 0 0 0 0 0 0 0 0 0 0 0 0 0 0 0 0 0 0 0 0 0 0 0 0
0 0 0 0 0 0 0 0 0 0 0 0 0 0 0 0 0 0 0 0 0 0 0 0 0 0 0 0 0 0 0 0 0 0 0 0 0 0 0 0 0 0 0 0
0 0 0 0 0 0 0 0 0 0 0 0 0 0 0 0 0 0 0 0 0 0 0 0 0 0 0 0 0 0 0 0 0 0 0 0 0 0 0 0 0 0 0 0
0 0 0 0 0 0 0 0 0 0 0 0 0 0 0 0 0 0 0 0 0 0 0 0 0 0 0 0 0 0 0 0 0 0 0 0 0 0 0 0 0 0 0 0
0 0 0 0 0 0 0 0 0 0 0 0 0 0 0 0 0 0 0 0 0 0 0 0 0 0 0 0 0 0 0 0 0 0 0 0 0 0 0 0 0 0 0 0
0 0 0 0 0 0 0 0 0 0 0 0 0 0 0 0 0 0 0 0 0 0 0 0 0 0 0 0 0 0 0 0 0 0 0 0 0 0 0 0 0 0 0 0
0 0 0 0 0 0 0 0 0 0 0 0 0 0 0 0 0 0 0 0 0 0 0 0 0 0 0 0 0 0 0 0 0 0 0 0 0 0 0 0 0 0 0 0
0 0 0 0 0 0 0 0 0 0 0 0 0 0 0 0 0 0 0 0 0 0 0 0 0 0 0 0 0 0 0 0 0 0 0 0 0 0 0 0 0 0 0 0
0 0 0 0 0 0 0 0 0 0 0 0 0 0 0 0 0 0 0 0 0 0 0 0 0 0 0 0 0 0 0 0 0 0 0 0 0 0 0 0 0 0 0 0
0 0 0 0 0 0 0 0 0 0 0 0 0 0 0 0 0 0 0 0 0 0 0 0 0 0 0 0 0 0 0 0 0 0 0 0 0 0 0 0 0 0 0 0
0 0 0 0 0 0 0 0 0 0 0 0 0 0 0 0 0 0 0 0 0 0 0 0 0 0 0 0 0 0 0 0 0 0 0 0 0 0 0 0 0 0 0 0
0 0 0 0 0 0 0 0 0 0 0 0 0 0 0 0 0 0 0 0 0 0 0 0 0 0 0 0 0 0 0 0 0 0 0 0 0 0 0 0 0 0 0 0
0 0 0 0 0 0 0 0 0 0 0 0 0 0 0 0 0 0 0 0 0 0 0 0 0 0 0 0 0 0 0 0 0 0 0 0 0 0 0 0 0 0 0 0
0 0 0 0 0 0 0 0 0 0 0 0 0 0 0 0 0 0 0 0 0 0 0 0 0 0 0 0 0 0 0 0 0 0 0 0 0 0 0 0 0 0 0 0
0 0 0 0 0 0 0 0 0 0 0 0 0 0 0 0 0 0 0 0 0 0 0 0 0 0 0 0 0 0 0 0 0 0 0 0 0 0 0 0 0 0 0 0
0 0 0 0 0 0 0 0 0 0 0 0 0 0 0 0 0 0 0 0 0 0 0 0 0 0 0 0 0 0 0 0 0 0 0 0 0 0 0 0 0 0 0 0
CIN
-0 -0 -0 -0 -0 -0 -0 -0 -0 -0 -0 -0 -0 -0 -0 -0 -0 -0 -0 -0 -0 -0 -0 -0 -0 -0 -0 -0 -0 -0 -0 -0 -0 -0 -0 -0 -0 -0 -0 -0 -0 -0 -0 -0
-0 -0 -0 -0 -0 -0 -0 -0 -0 -0 -0 -0 -0 -0 -0 -0 -0 -0 -0 -0 -0 -0 -0 -0 -0 -0 -0 -0 -0 -0 -0 -0 -0 -0 -0 -0 -0 -0 -0 -0 -0 -0 -0 -0
-0 -0 -0 -0 -0 -0 -0 -0 -0 -0 -0 -0 -0 -0 -0 -0 -0 -0 -0 -0 -0 -0 -0 -0 -0 -0 -0 -0 -0 -0 -0 -0 -0 -0 -0 -0 -0 -0 -0 -0 -0 -0 -0 -0
-0 -0 -0 -0 -0 -0 -0 -0 -0 -0 -0 -0 -0 -0 -0 -0 -0 -0 -0 -0 -0 -0 -0 -0 -0 -0 -0 -0 -0 -0 -0 -0 -0 -0 -0 -0 -0 -0 -0 -0 -0 -0 -0 -0
-0 -0 -0 -0 -0 -0 -0 -0 -0 -0 -0 -0 -0 -0 -0 -0 -0 -0 -0 -0 -0 -0 -0 -0 -0 -0 -0 -0 -0 -0 -0 -0 -0 -0 -0 -0 -0 -0 -0 -0 -0 -0 -0 -0
-0 -0 -0 -0 -0 -0 -0 -0 -0 -0 -0 -0 -0 -0 -0 -0 -0 -0 -0 -0 -0 -0 -0 -0 -0 -0 -0 -0 -0 -0 -0 -0 -0 -0 -0 -0 -0 -0 -0 -0 -0 -0 -0 -0
-0 -0 -0 -0 -0 -0 -0 -0 -0 -0 -0 -0 -0 -0 -0 -0 -0 -0 -0 -0 -0 -0 -0 -0 -0 -0 -0 -0 -0 -0 -0 -0 -0 -0 -0 -0 -0 -0 -0 -0 -0 -0 -0 -0
-0 -0 -0 -0 -0 -0 -0 -0 -0 -0 -0 -0 -0 -0 -0 -0 -0 -0 -0 -0 -0 -0 -0 -0 -0 -0 -0 -0 -0 -0 -0 -0 -0 -0 -0 -0 -0 -0 -0 -0 -0 -0 -0 -0
-0 -0 -0 -0 -0 -0 -0 -0 -0 -0 -0 -0 -0 -0 -0 -0 -0 -0 -0 -0 -0 -0 -0 -0 -0 -0 -0 -0 -0 -0 -0 -0 -0 -0 -0 -0 -0 -0 -0 -0 -0 -0 -0 -0
-0 -0 -0 -0 -0 -0 -0 -0 -0 -0 -0 -0 -0 -0 -0 -0 -0 -0 -0 -0 -0 -0 -0 -0 -0 -0 -0 -0 -0 -0 -0 -0 -0 -0 -0 -0 -0 -0 -0 -0 -0 -0 -0 -0
-0 -0 -0 -0 -0 -0 -0 -0 -0 -0 -0 -0 -0 -0 -0 -0 -0 -0 -0 -0 -0 -0 -0 -0 -0 -0 -0 -0 -0 -0 -0 -0 -0 -0 -0 -0 -0 -0 -0 -0 -0 -0 -0 -0
-0 -0 -0 -0 -0 -0 -0 -0 -0 -0 -0 -0 -0 -0 -0 -0 -0 -0 -0 -0 -0 -0 -0 -0 -0 -0 -0 -0 -0 -0 -0 -0 -0 -0 -0 -0 -0 -0 -0 -0 -0 -0 -0 -0
-0 -0 -0 -0 -0 -0 -0 -0 -0 -0 -0 -0 -0 -0 -0 -0 -0 -0 -0 -0 -0 -0 -0 -0 -0 -0 -0 -0 -0 -0 -0 -0 -0 -0 -0 -0 -0 -0 -0 -0 -0 -0 -0 -0
-0 -0 -0 -0 -0 -0 -0 -0 -0 -0 -0 -0 -0 -0 -0 -0 -0 -0 -0 -0 -0 -0 -0 -0 -0 -0 -0 -0 -0 -0 -0 -0 -0 -0 -0 -0 -0 -0 -0 -0 -0 -0 -0 -0
-0 -0 -0 -0 -0 -0 -0 -0 -0 -0 -0 -0 -0 -0 -0 -0 -0 -0 -0 -0 -0 -0 -0 -0 -0 -0 -0 -0 -0 -0 -0 -0 -0 -0 -0 -0 -0 -0 -0 -0 -0 -0 -0 -0
-0 -0 -0 -0 -0 -0 -0 -0 -0 -0 -0 -0 -0 -0 -0 -0 -0 -0 -0 -0 -0 -0 -0 -0 -0 -0 -0 -0 -0 -0 -0 -0 -0 -0 -0 -0 -0 -0 -0 -0 -0 -0 -0 -0
-0 -0 -0 -0 -0 -0 -0 -0 -0 -0 -0 -0 -0 -0 -0 -0 -0 -0 -0 -0 -0 -0 -0 -0 -0 -0 -0 -0 -0 -0 -0 -0 -0 -0 -0 -0 -0 -0 -0 -0 -0 -0 -0 -0
-0 -0 -0 -0 -0 -0 -0 -0 -0 -0 -0 -0 -0 -0 -0 -0 -0 -0 -0 -0 -0 -0 -0 -0 -0 -0 -0 -0 -0 -0 -0 -0 -0 -0 -0 -0 -0 -0 -0 -0 -0 -0 -0 -0
-0 -0 -0 -0 -0 -0 -0 -0 -0 -0 -0 -0 -0 -0 -0 -0 -0 -0 -0 -0 -0 -0 -0 -0 -0 -0 -0 -0 -0 -0 -0 -0 -0 -0 -0 -0 -0 -0 -0 -0 -0 -0 -0 -0
-0 -0 -0 -0 -0 -0 -0 -0 -0 -0 -0 -0 -0 -0 -0 -0 -0 -0 -0 -0 -0 -0 -0 -0 -0 -0 -0 -0 -0 -0 -0 -0 -0 -0 -0 -0 -0 -0 -0 -0 -0 -0 -0 -0
-0 -0 -0 -0 -0 -0 -0 -0 -0 -0 -0 -0 -0 -0 -0 -0 -0 -0 -0 -0 -0 -0 -0 -0 -0 -0 -0 -0 -0 -0 -0 -0 -0 -0 -0 -0 -0 -0 -0 -0 -0 -0 -0 -0
-0 -0 -0 -0 -0 -0 -0 -0 -0 -0 -0 -0 -0 -0 -0 -0 -0 -0 -0 -0 -0 -0 -0 -0 -0 -0 -0 -0 -0 -0 -0 -0 -0 -0 -0 -0 -0 -0 -0 -0 -0 -0 -0 -0
-0 -0 -0 -0 -0 -0 -0 -0 -0 -0 -0 -0 -0 -0 -0 -0 -0 -0 -0 -0 -0 -0 -0 -0 -0 -0 -0 -0 -0 -0 -0 -0 -0 -0 -0 -0 -0 -0 -0 -0 -0 -0 -0 -0
-0 -0 -0 -0 -0 -0 -0 -0 -0 -0 -0 -0 -0 -0 -0 -0 -0 -0 -0 -0 -0 -0 -0 -0 -0 -0 -0 -0 -0 -0 -0 -0 -0 -0 -0 -0 -0 -0 -0 -0 -0 -0 -0 -0
-0 -0 -0 -0 -0 -0 -0 -0 -0 -0 -0 -0 -0 -0 -0 -0 -0 -0 -0 -0 -0 -0 -0 -0 -0 -0 -0 -0 -0 -0 -0 -0 -0 -0 -0 -0 -0 -0 -0 -0 -0 -0 -0 -0
-0 -0 -0 -0 -0 -0 -0 -0 -0 -0 -0 -0 -0 -0 -0 -0 -0 -0 -0 -0 -0 -0 -0 -0 -0 -0 -0 -0 -0 -0 -0 -0 -0 -0 -0 -0 -0 -0 -0 -0 -0 -0 -0 -0
Wind_Speed
3 5 8 13 6 3 7 5 5 1 2 5 8 6 10 10 9 10 10 10 9 10 8 8 7 7 7 5 7 5 6 6 5 3 4 3 5 5 6 7 10 12 11 11
5 3 3 7 3 2 5 5 2 1 2 2 5 13 9 12 16 18 16 13 13 8 7 7 7 6 4 5 6 6 6 6 5 3 3 2 3 3 3 7 10 11 12 12
4 0 1 3 4 3 1 6 5 2 3 2 6 9 6 7 8 8 12 14 13 15 12 8 8 7 6 5 6 6 5 6 5 5 4 4 4 3 5 8 7 9 11 11
3 2 1 3 3 3 3 3 6 7 5 3 2 8 7 6 11 14 15 14 13 11 8 9 8 7 8 6 6 6 6 5 6 6 4 6 3 4 4 5 6 8 10 11
4 3 2 3 3 0 2 4 5 4 4 3 2 2 9 2 7 17 15 15 12 13 15 13 11 10 7 7 7 6 6 6 5 6 5 4 4 3 3 5 9 9 9 10
3 2 2 2 3 2 7 7 9 6 3 3 6 7 7 6 8 3 12 12 14 13 11 10 9 10 7 7 7 6 6 5 6 5 6 6 6 6 6 8 7 8 7 8
2 1 0 3 6 5 4 6 4 6 5 8 2 3 13 7 9 8 14 14 15 16 14 13 14 11 9 8 7 6 6 5 5 5 6 6 5 5 5 6 5 8 7 8
8 4 8 4 2 7 5 5 8 9 4 4 0 8 11 7 5 6 9 13 14 15 14 14 14 12 10 9 8 7 6 5 5 5 6 4 5 3 4 5 5 5 6 7
6 2 1 3 3 2 6 4 3 8 2 4 5 8 13 7 5 3 7 11 16 17 15 15 12 12 10 9 8 8 7 5 5 5 4 4 5 6 5 7 6 6 7 8
9 6 1 2 5 0 3 4 4 4 1 5 5 6 9 6 8 6 8 13 13 14 14 12 12 12 9 9 7 7 6 6 5 4 4 4 5 5 6 7 9 10 9 9
5 5 2 3 8 10 3 3 3 3 5 7 2 9 10 12 10 13 13 13 15 17 16 13 11 10 10 9 8 7 6 6 4 4 4 4 5 7 7 8 8 9 10 10
5 6 5 7 2 4 4 7 7 7 6 3 3 13 5 4 7 9 10 11 12 15 15 14 13 12 11 10 9 8 6 5 4 5 4 6 7 8 8 9 9 10 10 10
10 1 4 7 4 1 7 7 4 5 4 8 6 10 1 5 5 7 9 9 12 13 14 13 13 13 12 11 9 8 6 6 5 5 4 5 7 7 7 7 9 9 9 9
8 4 9 12 6 8 8 8 15 8 5 6 14 10 19 8 10 7 8 12 14 16 17 15 14 13 12 11 10 8 7 5 5 6 5 6 7 6 6 6 6 6 7 7
5 6 4 4 2 3 4 8 20 20 20 11 12 15 27 11 14 13 10 8 12 15 17 18 17 15 14 12 10 8 7 6 5 6 6 4 5 5 4 5 6 5 6 6
1 3 3 5 1 3 5 7 13 16 6 14 15 20 22 10 6 6 10 12 16 16 18 17 17 17 17 16 12 9 7 6 7 6 5 2 5 4 4 4 6 5 6 7
8 7 4 7 4 4 9 16 14 8 7 12 14 26 4 9 12 12 13 16 20 20 21 21 22 19 17 16 15 12 9 7 7 6 4 3 4 4 4 4 4 5 5 5
9 8 2 3 3 11 3 5 20 25 13 20 13 16 13 9 6 8 10 17 19 19 19 18 16 16 15 13 12 12 9 7 7 6 4 4 4 3 4 4 4 4 3 4
1 6 4 4 7 12 4 5 12 11 18 27 25 26 28 3 3 24 15 18 22 22 20 18 17 18 15 16 15 14 9 8 7 6 5 4 4 3 2 4 4 3 3 4
2 4 8 5 6 17 3 16 9 9 21 16 18 24 17 8 3 18 13 12 11 11 14 17 18 16 17 14 16 16 11 9 8 7 6 5 4 3 2 1 3 2 2 5
3 1 16 13 14 13 7 12 9 10 8 12 15 20 11 11 11 3 1 4 6 13 18 17 18 18 18 17 17 14 12 11 8 8 6 5 4 3 2 1 1 2 3 4
16 15 11 3 6 30 11 6 24 13 4 7 6 8 14 10 5 3 3 8 12 15 17 14 15 14 15 16 17 15 13 10 10 9 7 6 4 3 2 4 1 3 2 3
14 14 15 18 15 2 13 11 11 5 8 7 7 7 8 8 8 7 7 9 10 14 14 13 16 16 13 13 15 17 12 14 12 10 7 6 5 4 4 4 3 2 2 2
6 5 10 6 22 12 10 6 4 7 6 6 6 9 11 10 9 8 9 9 10 11 13 12 17 17 16 13 12 12 16 14 12 11 9 7 6 4 2 3 3 2 1 2
8 15 14 18 17 4 14 16 12 8 5 6 2 6 10 7 11 11 11 12 11 12 12 14 16 17 17 15 12 14 14 14 12 10 9 7 5 5 3 2 2 1 2 3
14 10 16 20 13 18 25 10 12 11 15 13 10 4 5 9 11 10 10 11 13 14 13 13 14 16 16 14 13 13 14 15 14 11 7 7 6 4 3 3 1 2 3 6
Wind_Direction
30 100 188 193 174 135 139 138 166 211 194 166 229 244 222 209 209 210 210 202 207 201 202 180 169 133 123 94 80 68 54 16 23 354 347 357 2 5 8 6 8 5 357 355
40 217 195 165 206 189 129 123 168 310 190 171 286 261 229 204 217 208 204 201 204 187 179 174 149 144 121 117 95 84 63 39 22 3 342 2 330 339 354 5 6 359 354 356
156 3 92 121 165 156 108 170 174 188 116 303 341 285 222 226 216 209 214 201 198 185 176 166 148 149 137 121 116 95 74 62 40 20 3 357 356 346 3 3 355 348 350 354
104 355 139 115 139 110 210 183 137 128 106 220 77 278 281 228 229 222 209 198 192 177 165 154 153 153 153 140 115 99 78 59 55 28 35 37 18 10 346 353 336 342 350 353
212 134 135 130 152 209 198 104 114 113 96 50 218 52 269 99 240 231 214 202 187 178 169 166 166 154 147 135 129 110 93 69 56 53 48 45 27 7 327 358 348 346 346 353
96 94 51 121 77 4 146 71 43 46 54 360 223 165 269 203 211 244 204 197 181 171 164 160 152 139 133 133 123 121 107 78 62 62 51 46 38 11 10 6 351 344 342 344
53 104 237 148 78 9 74 83 7 353 4 224 8 155 250 263 235 206 197 194 180 172 164 162 154 151 149 148 138 133 114 93 77 66 55 39 36 26 18 10 345 341 340 343
155 285 168 175 204 180 170 160 161 207 199 253 321 234 251 229 264 221 198 190 172 172 172 169 164 156 154 147 144 131 137 119 89 70 60 36 33 27 16 0 351 341 330 326
139 161 117 77 66 109 189 193 159 99 47 50 226 282 295 239 240 209 165 159 181 177 174 171 160 155 149 151 153 149 140 123 99 78 71 36 35 26 12 3 350 343 335 329
202 100 9 142 117 3 180 159 94 357 195 264 281 275 245 266 233 221 195 195 183 173 171 167 162 155 152 149 145 136 137 121 112 86 54 53 38 29 21 7 355 350 337 337
135 106 285 145 203 165 152 213 66 135 164 184 238 255 219 230 195 214 216 197 183 178 173 166 160 155 150 140 140 141 133 125 106 84 67 59 46 37 22 10 356 350 340 345
171 113 161 209 198 150 206 202 160 137 235 265 135 265 279 199 210 211 210 191 181 183 173 162 157 151 155 149 150 139 137 124 111 87 78 60 49 39 22 10 356 354 346 347
179 236 78 355 354 44 212 188 150 109 106 195 143 263 6 256 260 233 204 180 178 171 165 160 158 165 161 158 149 146 141 130 108 94 85 68 54 37 21 2 358 350 341 342
100 132 164 190 187 133 194 187 181 147 140 178 226 285 259 238 237 224 204 191 182 180 175 168 167 168 165 157 152 146 131 122 118 100 82 68 56 35 15 357 345 334 332 342
124 195 155 239 228 179 205 173 186 201 215 188 233 208 252 224 222 221 204 175 172 185 184 182 173 168 164 155 153 142 132 131 126 108 89 63 63 37 9 359 339 336 341 344
8 226 110 301 278 185 240 206 207 216 265 253 269 273 256 252 211 168 194 178 190 196 198 185 177 168 168 166 153 148 144 135 125 116 114 106 71 38 355 346 343 347 342 344
156 138 105 256 30 21 288 210 192 199 204 199 213 235 232 238 214 211 200 191 197 198 192 185 182 175 167 164 155 154 151 138 126 122 126 113 82 47 347 335 356 347 351 342
150 136 136 192 53 253 227 197 197 214 205 222 273 260 230 225 243 236 197 196 204 199 191 187 174 164 158 146 137 134 142 138 128 133 147 121 98 59 358 11 1 340 345 346
95 141 147 182 205 291 231 186 159 168 238 230 229 249 254 124 19 277 192 203 203 195 190 181 169 156 142 146 142 135 138 135 135 151 159 143 131 103 34 22 347 326 348 8
55 28 186 129 213 237 38 185 155 97 265 228 214 237 244 134 192 263 190 201 196 168 161 155 150 143 142 146 141 140 147 149 161 162 168 152 157 153 112 337 340 310 324 37
147 78 209 203 238 270 192 146 129 164 245 201 196 224 147 192 206 230 117 84 131 149 150 139 147 156 153 148 145 142 148 165 161 154 148 147 163 166 194 77 336 25 2 18
173 175 195 146 206 256 140 148 185 210 194 172 173 185 192 211 150 128 116 134 138 137 139 144 142 141 150 151 143 146 161 148 146 144 150 150 162 163 133 99 52 56 28 13
203 194 187 190 219 113 187 199 212 162 163 193 172 190 189 173 195 172 165 154 145 148 144 147 143 141 148 155 153 152 152 145 150 144 154 153 167 161 149 123 92 66 38 41
242 184 215 122 239 215 198 227 207 180 185 181 193 171 168 185 168 170 150 152 152 150 150 147 144 150 151 158 154 143 147 149 146 145 159 167 153 140 124 123 134 122 29 359
176 149 203 237 238 28 232 216 186 196 179 185 125 181 194 173 171 169 167 160 162 152 152 156 157 155 159 155 141 143 146 145 146 152 163 158 150 151 150 141 171 163 223 180
194 182 193 226 224 212 245 174 176 179 204 208 168 182 191 179 167 159 161 159 157 153 154 157 157 152 152 150 142 149 148 154 154 156 162 162 154 152 146 134 53 44 69 63